Tracking 18852 objects as of 23-Nov-2017
HD Live streaming from Space Station
objects crossing your sky now

WEOS

Track WEOS now!
10-day predictions
WEOS is classified as:


NORAD ID: 27599
Int'l Code: 2002-056C
Perigee: 793.2 km
Apogee: 808.5 km
Inclination: 98.4 °
Period: 100.7 minutes
Semi major axis: 7171 km
RCS: 0.3299 m2 (medium)
Launch date: December 14, 2002
Source: Japan (JPN)
Launch site: TANEGASHIMA SPACE CENTER (TNSTA)
aabbcc
Your satellite tracking list
Your tracking list is empty




NASA's NSSDC Master Catalog

Two Line Element Set (TLE):
1 27599U 02056C   17326.89880302  .00000053  00000-0  37440-4 0  9992
2 27599  98.4139 281.6561 0010661 131.9160 228.2934 14.29401819779329
Source of the keplerian elements: AFSPC